Location: Allos
(44.2333°N, 6.6333°E)
Time: 18:48:48
(UTC+00:00)

D-STAR ONE SPARROW - Visible Passes

Search period start: 22 June 2021 00:00
Search period end: 02 July 2021 00:00
Orbit: 566 x 586 km, 97.7° (Epoch: 21 June)

Date Brightness Start Highest point End Pass type
(mag) Time Alt. Az. Time Alt. Az. Time Alt. Az.
22 Jun ? 22:13:32 10° NE 22:15:50 16° E 22:15:50 16° E visible
22 Jun ? 23:47:38 10° N 23:51:31 45° WNW 23:52:05 42° W visible
23 Jun ? 22:17:08 10° NE 22:19:40 17° E 22:19:40 17° E visible
23 Jun ? 23:51:28 10° N 23:55:18 41° WNW 23:55:56 38° W visible
24 Jun ? 22:20:46 10° NE 22:23:30 19° E 22:23:30 19° E visible
24 Jun ? 23:55:19 10° N 23:59:04 37° WNW 23:59:46 34° W visible
25 Jun ? 22:24:25 10° NE 22:27:20 21° E 22:27:20 21° E visible
25 Jun ? 23:59:10 10° N 00:02:50 34° WNW 00:03:35 31° W visible
26 Jun ? 22:28:05 10° NE 22:31:10 23° E 22:31:10 23° E visible
27 Jun ? 00:03:01 10° N 00:06:37 31° WNW 00:07:25 28° W visible
27 Jun ? 22:31:45 10° NE 22:34:59 25° E 22:34:59 25° E visible
28 Jun ? 00:06:53 10° N 00:10:23 28° WNW 00:11:14 26° W visible
28 Jun ? 22:35:27 10° NE 22:38:48 27° E 22:38:48 27° E visible
29 Jun ? 00:10:44 10° NNW 00:14:09 26° WNW 00:15:03 24° W visible
29 Jun ? 22:39:10 10° NE 22:42:37 30° E 22:42:37 30° E visible
30 Jun ? 00:14:36 10° NNW 00:17:54 24° WNW 00:18:52 22° W visible
30 Jun ? 22:42:52 10° NNE 22:46:26 33° E 22:46:26 33° E visible
01 Jul ? 00:18:29 10° NNW 00:21:39 22° WNW 00:22:41 20° W visible
01 Jul ? 22:46:35 10° NNE 22:50:14 36° E 22:50:14 36° E visible
